Waarnemingen

Advertentie
Mijn weer
Westdorpe aws, Nederland (6319): temperatuur & dauwpunt: 22.05.2017 06:00:00 - 28.05.2017 06:00:00 (CEST)Westdorpe aws, Nederland (6319): temperatuur 5cm: 22.05.2017 06:00:00 - 28.05.2017 06:00:00 (CEST)Westdorpe aws, Nederland (6319): windsnelheid & windstoten: 22.05.2017 06:00:00 - 28.05.2017 06:00:00 (CEST)Westdorpe aws, Nederland (6319): windrichting: 22.05.2017 06:00:00 - 28.05.2017 06:00:00 (CEST)Westdorpe aws, Nederland (6319): luchtdruk: 22.05.2017 06:00:00 - 28.05.2017 06:00:00 (CEST)Westdorpe aws, Nederland (6319): zicht: 22.05.2017 06:00:00 - 28.05.2017 06:00:00 (CEST)Westdorpe aws, Nederland (6319): neerslag: 22.05.2017 06:00:00 - 28.05.2017 06:00:00 (CEST)
Datum & Tijd tt [°C] td [°C] tt 5cm [°C] ff [km/u] ff [kn] fx [km/u] fx [kn] dd ppp [hPa] vv [km] rr [mm]
28.05.2017 06:00:00 15,4 13,1 13,1 4 2 7 4 ZZO 1018,6 21 0,0
28.05.2017 05:00:00 15,5 13,1 13,6 4 2 11 6 Z 1018,4 23 0,0
28.05.2017 04:00:00 15,7 13,5 14,4 7 4 14 8 WZW 1018,2 27 0,0
28.05.2017 03:00:00 15,9 13,6 13,5 7 4 11 6 WZW 1018,3 35 0,0
28.05.2017 02:00:00 16,2 13,1 12,6 4 2 7 4 ZW 1018,2 49 0,0
28.05.2017 01:00:00 16,5 14,1 13,1 4 2 11 6 WZW 1018,1 32 0,0
28.05.2017 00:00:00 16,7 14,4 15,4 7 4 14 8 WZW 1017,8 30 0,0
27.05.2017 23:00:00 17,5 14,9 15,7 4 2 11 6 WZW 1017,9 32 0,0
27.05.2017 22:00:00 18,4 15,3 17,6 7 4 22 12 W 1017,5 37 0,0
27.05.2017 21:00:00 20,1 15,4 19,5 11 6 22 12 WNW 1017,0 38 0,0
27.05.2017 20:00:00 21,4 16,0 21,3 14 8 25 14 NW 1016,2 30 0,0
27.05.2017 19:00:00 22,8 16,8 23,1 18 10 25 14 WNW 1016,0 31 0,0
27.05.2017 18:00:00 23,5 17,0 25,4 18 10 32 18 NW 1015,9 20 0,0
27.05.2017 17:00:00 24,6 16,9 26,6 25 14 36 19 NW 1015,4 27 0,0
27.05.2017 16:00:00 30,1 15,4 32,1 11 6 29 16 Z 1014,8 46 0,0
27.05.2017 15:00:00 30,9 14,6 34,5 14 8 36 19 ZZO 1014,8 38 0,0
27.05.2017 14:00:00 29,3 15,3 32,4 18 10 32 18 ZZW 1015,2 35 0,0
27.05.2017 13:00:00 29,6 14,0 32,6 18 10 29 16 Z 1015,3 35 0,0
27.05.2017 12:00:00 28,4 13,4 31,1 11 6 29 16 ZO 1015,0 42 0,0
27.05.2017 11:00:00 26,2 13,4 29,0 14 8 25 14 ZZO 1015,3 33 0,0
27.05.2017 10:00:00 24,4 13,5 26,7 14 8 22 12 ZZO 1015,6 38 0,0
27.05.2017 09:00:00 21,9 12,9 23,2 14 8 25 14 ZO 1015,8 43 0,0
27.05.2017 08:00:00 20,0 12,8 20,6 11 6 18 10 OZO 1015,9 44 0,0
27.05.2017 07:00:00 18,2 12,6 17,6 11 6 18 10 OZO 1016,1 48 0,0
27.05.2017 06:00:00 17,1 12,1 15,0 7 4 14 8 OZO 1016,2 49 0,0
27.05.2017 05:00:00 17,5 12,1 15,1 7 4 18 10 OZO 1016,6 49 0,0
27.05.2017 04:00:00 18,4 12,0 16,3 7 4 14 8 O 1016,5 50 0,0
27.05.2017 03:00:00 19,2 12,0 16,9 7 4 25 14 OZO 1016,3 50 0,0
27.05.2017 02:00:00 20,5 12,2 19,0 14 8 25 14 O 1016,2 49 0,0
27.05.2017 01:00:00 20,9 11,7 18,8 14 8 22 12 O 1016,5 50 0,0
27.05.2017 00:00:00 21,7 11,1 19,5 11 6 18 10 O 1016,7 50 0,0
26.05.2017 23:00:00 22,2 10,8 19,9 11 6 14 8 O 1016,5 50 0,0
26.05.2017 22:00:00 23,4 10,4 21,2 11 6 25 14 O 1016,5 50 0,0
26.05.2017 21:00:00 25,5 10,6 23,9 11 6 29 16 O 1016,4 48 0,0
26.05.2017 20:00:00 26,7 10,5 26,2 18 10 29 16 O 1016,2 42 0,0
26.05.2017 19:00:00 27,3 10,2 27,7 18 10 32 18 O 1016,5 44 0,0
26.05.2017 18:00:00 27,3 9,0 28,8 18 10 29 16 OZO 1017,3 34 0,0
26.05.2017 17:00:00 27,5 10,7 29,3 22 12 36 19 O 1017,8 37 0,0
26.05.2017 16:00:00 26,6 10,5 29,1 22 12 36 19 O 1018,3 39 0,0
26.05.2017 15:00:00 26,3 10,6 28,9 22 12 32 18 O 1019,1 35 0,0
26.05.2017 14:00:00 25,1 11,6 28,3 18 10 36 19 O 1019,8 34 0,0
26.05.2017 13:00:00 24,5 12,6 27,5 18 10 32 18 O 1020,4 27 0,0
26.05.2017 12:00:00 23,8 13,0 26,4 22 12 29 16 O 1021,0 31 0,0
26.05.2017 11:00:00 22,8 13,3 25,0 22 12 32 18 O 1021,4 30 0,0
26.05.2017 10:00:00 21,1 13,0 23,1 22 12 29 16 O 1021,9 30 0,0
26.05.2017 09:00:00 19,8 13,4 21,2 11 6 22 12 O 1022,1 27 0,0
26.05.2017 08:00:00 17,7 13,0 18,2 11 6 22 12 O 1022,0 26 0,0
26.05.2017 07:00:00 16,2 12,7 15,5 14 8 18 10 O 1021,8 30 0,0
26.05.2017 06:00:00 14,9 12,6 12,4 11 6 14 8 O 1021,9 27 0,0
26.05.2017 05:00:00 14,4 12,9 11,9 7 4 11 6 ONO 1021,8 24 0,0
26.05.2017 04:00:00 14,0 12,6 11,1 7 4 11 6 ONO 1021,8 18 0,0
26.05.2017 03:00:00 15,1 13,2 13,7 7 4 14 8 ONO 1021,7 23 0,0
26.05.2017 02:00:00 15,8 13,5 14,6 11 6 14 8 NO 1022,0 30 0,0
26.05.2017 01:00:00 16,3 13,3 14,7 11 6 18 10 NO 1022,3 47 0,0
26.05.2017 00:00:00 17,4 13,4 15,6 11 6 14 8 NO 1022,3 47 0,0
25.05.2017 23:00:00 17,6 13,1 15,4 11 6 11 6 NO 1022,3 48 0,0
25.05.2017 22:00:00 18,9 13,3 16,3 7 4 11 6 NO 1022,2 50 0,0
25.05.2017 21:00:00 22,1 13,1 21,2 11 6 25 14 NO 1022,1 46 0,0
25.05.2017 20:00:00 22,9 13,5 22,9 18 10 29 16 N 1022,0 34 0,0
25.05.2017 19:00:00 23,8 13,5 24,6 22 12 32 18 NNO 1022,3 48 0,0
25.05.2017 18:00:00 24,4 12,5 25,9 22 12 32 18 NNO 1022,8 40 0,0
25.05.2017 17:00:00 24,5 11,6 26,5 18 10 29 16 NNO 1023,2 37 0,0
25.05.2017 16:00:00 24,7 11,3 26,8 14 8 29 16 NNO 1023,5 35 0,0
25.05.2017 15:00:00 24,0 11,5 26,6 14 8 25 14 NNO 1024,1 36 0,0
25.05.2017 14:00:00 23,2 11,0 26,0 11 6 25 14 NO 1024,5 34 0,0
25.05.2017 13:00:00 21,7 11,0 24,8 11 6 22 12 NNO 1025,0 38 0,0
25.05.2017 12:00:00 20,7 10,9 23,4 7 4 22 12 ONO 1025,6 42 0,0
25.05.2017 11:00:00 19,5 10,7 22,2 14 8 22 12 NO 1025,7 35 0,0
25.05.2017 10:00:00 18,3 12,0 20,5 11 6 18 10 NO 1025,8 32 0,0
25.05.2017 09:00:00 16,7 12,8 17,7 11 6 18 10 NO 1025,6 12 0,0
25.05.2017 08:00:00 14,3 13,3 14,2 11 6 14 8 NNO 1025,3 3,5 0,0
25.05.2017 07:00:00 11,7 11,7 7,0 4 2 7 4 NNO 1025,0 0,1 0,0
25.05.2017 06:00:00 10,1 10,1 4,2 4 2 4 2 N 1025,0 0,1 0,0
25.05.2017 05:00:00 10,0 9,9 4,3 4 2 4 2 NNW 1025,0 0,1 0,0
25.05.2017 04:00:00 11,2 11,1 4,8 4 2 7 4 N 1025,1 1,5 0,0
25.05.2017 03:00:00 11,3 11,1 5,2 4 2 7 4 NNW 1025,3 2,2 0,0
25.05.2017 02:00:00 11,8 11,4 6,1 4 2 7 4 WNW 1025,4 6 0,0
25.05.2017 01:00:00 12,5 11,6 6,6 7 4 7 4 WNW 1025,5 10 0,0
25.05.2017 00:00:00 12,6 11,4 8,2 7 4 7 4 WNW 1025,7 13 0,0
24.05.2017 23:00:00 14,1 12,2 12,0 4 2 14 8 NNW 1025,6 23 0,0
24.05.2017 22:00:00 16,0 12,4 15,2 14 8 18 10 N 1025,6 38 0,0
24.05.2017 21:00:00 17,3 12,8 16,8 14 8 22 12 NNW 1025,3 43 0,0
24.05.2017 20:00:00 18,5 13,4 18,5 18 10 25 14 NNW 1025,2 34 0,0
24.05.2017 19:00:00 20,0 14,1 21,1 14 8 29 16 NNW 1025,0 25 0,0
24.05.2017 18:00:00 20,6 11,7 22,1 18 10 29 16 NW 1025,2 42 0,0
24.05.2017 17:00:00 21,4 11,1 23,5 18 10 29 16 NW 1025,4 37 0,0
24.05.2017 16:00:00 21,6 9,4 24,2 14 8 32 18 NW 1025,3 36 0,0
24.05.2017 15:00:00 21,7 8,8 24,1 18 10 29 16 NW 1025,4 36 0,0
24.05.2017 14:00:00 22,2 11,0 24,1 18 10 32 18 WNW 1025,2 28 0,0
24.05.2017 13:00:00 21,5 12,0 24,0 18 10 25 14 WNW 1025,3 29 0,0
24.05.2017 12:00:00 21,0 15,2 23,1 14 8 22 12 WNW 1025,2 19 0,0
24.05.2017 11:00:00 19,6 15,4 22,0 11 6 18 10 WZW 1025,2 12 0,0
24.05.2017 10:00:00 17,8 15,0 19,9 11 6 18 10 WZW 1025,1 10 0,0
24.05.2017 09:00:00 15,4 14,3 15,8 11 6 22 12 W 1025,2 5 0,0
24.05.2017 08:00:00 14,7 13,7 14,9 11 6 14 8 W 1024,5 4,8 0,0
24.05.2017 07:00:00 13,4 13,0 13,0 7 4 14 8 WZW 1024,0 3,7 0,0
24.05.2017 06:00:00 11,8 11,6 10,0 7 4 14 8 WZW 1023,8 4,1 0,0
24.05.2017 05:00:00 12,1 11,6 10,5 11 6 14 8 WZW 1023,7 6 0,0
24.05.2017 04:00:00 12,6 11,8 11,3 11 6 14 8 ZW 1023,6 10 0,0
24.05.2017 03:00:00 12,5 11,4 10,2 11 6 14 8 WZW 1023,9 15 0,0
24.05.2017 02:00:00 11,8 10,6 7,1 4 2 7 4 Z 1024,1 25 0,0
24.05.2017 01:00:00 11,7 10,3 7,3 4 2 4 2 Z 1024,0 30 0,0
24.05.2017 00:00:00 12,6 10,7 7,6 0 0 4 2 N 1024,0 32 0,0
23.05.2017 23:00:00 13,4 10,2 8,9 0 0 4 2 N 1023,8 40 0,0
23.05.2017 22:00:00 15,2 11,3 12,9 4 2 14 8 NNW 1023,5 38 0,0
23.05.2017 21:00:00 17,3 11,2 16,6 11 6 18 10 NNW 1023,0 46 0,0
23.05.2017 20:00:00 17,9 10,6 17,9 14 8 18 10 WNW 1022,8 45 0,0
23.05.2017 19:00:00 18,6 10,8 19,3 11 6 22 12 NW 1022,6 40 0,0
23.05.2017 18:00:00 19,4 11,3 20,8 18 10 29 16 NW 1022,6 33 0,0
23.05.2017 17:00:00 19,8 12,2 21,6 18 10 29 16 NW 1022,3 27 0,0
23.05.2017 16:00:00 20,2 11,7 22,4 14 8 29 16 NW 1021,9 39 0,0
23.05.2017 15:00:00 19,6 12,7 22,6 14 8 29 16 WNW 1021,6 34 0,0
23.05.2017 14:00:00 19,0 12,8 21,3 18 10 29 16 WNW 1021,5 40 0,0
23.05.2017 13:00:00 18,7 13,7 21,1 14 8 25 14 WNW 1021,0 22 0,0
23.05.2017 12:00:00 17,0 12,5 18,5 18 10 32 18 WNW 1020,8 24 0,0
23.05.2017 11:00:00 17,0 11,5 18,3 25 14 32 18 NW 1019,8 24 0,0
23.05.2017 10:00:00 17,3 13,1 18,3 18 10 25 14 WNW 1018,8 25 0,0
23.05.2017 09:00:00 16,2 12,8 16,8 18 10 29 16 W 1018,0 14 0,0
23.05.2017 08:00:00 14,9 11,9 14,8 18 10 25 14 W 1017,2 14 0,0
23.05.2017 07:00:00 13,4 11,0 11,7 7 4 14 8 WZW 1016,3 12 0,0
23.05.2017 06:00:00 11,9 10,0 8,8 11 6 14 8 WZW 1015,9 12 0,0
23.05.2017 05:00:00 11,6 9,8 7,1 7 4 11 6 WZW 1015,5 27 0,0
23.05.2017 04:00:00 11,8 10,1 7,5 4 2 4 2 Z 1015,4 27 0,0
23.05.2017 03:00:00 12,2 10,4 7,7 4 2 4 2 Z 1015,0 37 0,0
23.05.2017 02:00:00 14,4 10,5 7,8 4 2 7 4 ZZO 1014,9 48 0,0
23.05.2017 01:00:00 16,6 10,2 9,3 7 4 11 6 Z 1015,1 49 0,0
23.05.2017 00:00:00 17,6 10,7 10,5 4 2 11 6 ZZW 1015,5 50 0,0
22.05.2017 23:00:00 18,2 11,1 13,7 7 4 14 8 ZW 1015,7 50 0,0
22.05.2017 22:00:00 19,1 11,6 16,7 11 6 14 8 ZW 1015,3 50 0,0
22.05.2017 21:00:00 20,6 12,3 19,0 7 4 14 8 ZW 1014,8 48 0,0
22.05.2017 20:00:00 22,1 11,8 21,5 7 4 18 10 ZW 1014,8 49 0,0
22.05.2017 19:00:00 24,5 10,5 25,5 7 4 18 10 ZZO 1014,8 40 0,0
22.05.2017 18:00:00 24,3 10,8 25,5 11 6 22 12 ZZO 1015,4 43 0,0
22.05.2017 17:00:00 23,9 11,2 24,6 11 6 18 10 Z 1015,6 31 0,0
22.05.2017 16:00:00 24,3 9,8 25,1 7 4 25 14 ZZW 1016,5 42 0,0
22.05.2017 15:00:00 24,6 8,3 26,4 11 6 25 14 ZO 1016,7 34 0,0
22.05.2017 14:00:00 23,8 9,7 25,2 11 6 25 14 ZZO 1017,2 42 0,0
22.05.2017 13:00:00 22,1 8,6 23,3 11 6 25 14 ZZO 1017,8 39 0,0
22.05.2017 12:00:00 22,2 9,1 24,2 14 8 22 12 O 1018,1 37 0,0
22.05.2017 11:00:00 21,1 8,6 23,0 11 6 22 12 OZO 1018,7 38 0,0
22.05.2017 10:00:00 19,3 9,3 20,4 14 8 22 12 OZO 1019,1 37 0,0
22.05.2017 09:00:00 17,2 9,0 18,4 7 4 14 8 O 1019,4 31 0,0
22.05.2017 08:00:00 15,0 9,0 15,5 7 4 14 8 OZO 1019,6 32 0,0
22.05.2017 07:00:00 12,7 7,8 11,5 7 4 11 6 O 1019,5 24 0,0
22.05.2017 06:00:00 10,7 6,9 5,3 4 2 11 6 O 1019,8 25 0,0

tt = temperatuur
td = dauwpunt
tt 5cm = temperatuur 5cm
ff = windsnelheid
fx = windstoten
dd = windrichting
ppp = luchtdruk
vv = zicht
rr = neerslag

Weerstations in de omgeving